Lexington Weather

Lexington, Massachusetts, USA

34°F
4/16/2021 10:49am 
  • Lexington Conditions: Snow, Fog, Overcast
  • Temperature: 34.0°F / 1.1°CWarmer 0.2°F than last hour.
  • Dew Point: 32.7°FIncreased 0.2°Fsince last hour.
  • Relative Humidity: 95
  • Wind: Wind from N N 3 mph, 10-min avg: 1 mph, gust: 4 mph
  • Barometer: 29.47 inFalling 0.03  inHg/hr Falling Slowly
  • Visibility: ½ mile
  • Snow Today: 1.3 in
  •   

Regional Weather Roundup
for Boston / Norton, MA

        
000
ASUS41 KBOX 130104
RWRBOX

REGIONAL WEATHER ROUNDUP
NATIONAL WEATHER SERVICE BOSTON/NORTON MA
900 PM EDT MON APR 12 2021

NOTE:  "FAIR" INDICATES FEW OR NO CLOUDS BELOW 12,000 FEET WITH NO 
SIGNIFICANT WEATHER AND/OR OBSTRUCTIONS TO VISIBILITY.

MAZALL-130200-
EASTERN MASSACHUSETTS
  
CITY           SKY/WX    TMP DP  RH WIND       PRES   REMARKS
BOSTON         MOCLDY    45  37  73 E12       29.96R                  
BEVERLY        NOT AVBL                                               
LAWRENCE       PTCLDY    41  36  82 NE3       29.98R                  
BEDFORD        MOCLDY    42  36  79 NE6       29.95R                  
BLUE HILL        N/A     40  38  93 E10G20    29.92R                  
NORWOOD        CLOUDY    45  38  76 NE13      29.95R                  
MARSHFIELD     MOCLDY    45  41  87 NE9       29.95R                  
PLYMOUTH       MOCLDY    43  38  82 NE8       29.93R                  
TAUNTON        CLOUDY    44  37  76 VRB5      29.94R                  
NEW BEDFORD    CLOUDY    43  36  76 NE13      29.92R                  
$$

MAZALL-130200-
CAPE COD AND THE ISLANDS
  
CITY           SKY/WX    TMP DP  RH WIND       PRES   REMARKS
FALMOUTH       CLOUDY    43  37  81 NE16G25   29.91R                  
HYANNIS        PTCLDY    43  36  76 NE12      29.90R                  
CHATHAM        PTCLDY    43  35  73 NE10      29.92R                  
PROVINCETOWN   PTCLDY    41  38  89 E6        29.93                   
NANTUCKET      PTCLDY    42  35  76 NE17G26   29.89R                  
MARTHAS VNYRD  MOCLDY    43  35  73 NE18      29.90R                  
$$
 
MAZALL-130200-
CENTRAL AND WESTERN MASSACHUSETTS
  
CITY           SKY/WX    TMP DP  RH WIND       PRES   REMARKS
WORCESTER      PTCLDY    42  35  76 NE7       29.92R                  
FITCHBURG      PTCLDY    44  35  70 VRB3      29.96R                  
ORANGE         MOCLDY    45  36  70 NE8       29.95R                  
SPRINGFIELD    CLOUDY    46  37  68 NE6       29.93R                  
WESTFIELD      CLOUDY    47  36  65 NE7       29.94R                  
NORTH ADAMS    MOCLDY    48  38  68 E5        29.93R                  
PITTSFIELD     MOCLDY    43  36  76 E3        29.91R                  
$$
 
RIZALL-130200-
RHODE ISLAND
  
CITY           SKY/WX    TMP DP  RH WIND       PRES   REMARKS
PROVIDENCE     CLOUDY    45  38  76 NE10      29.94R                  
NEWPORT        MOCLDY    42  36  79 NE12      29.92R                  
BLOCK ISLAND   CLOUDY    43  37  79 NE16G24   29.91R                  
SMITHFIELD     CLOUDY    43  39  86 NE8       29.93R                  
WESTERLY       CLOUDY    44  38  79 NE8       29.91R                  
$$
 
CTZALL-130200-
CONNECTICUT
  
CITY           SKY/WX    TMP DP  RH WIND       PRES   REMARKS
BRADLEY INTL   PTCLDY    46  34  62 NE7       29.93R                  
HARTFORD       CLOUDY    47  37  68 N9        29.93R                  
BRIDGEPORT     CLOUDY    48  45  89 N3        29.92R                  
DANBURY        LGT RAIN  48  41  76 E5        29.93R                  
GROTON         CLOUDY    47  39  74 NE13      29.90R                  
NEW HAVEN      CLOUDY    50  40  68 NE7       29.91R                  
CHESTER        CLOUDY    46  39  76 NE8       29.90R                  
MERIDEN        CLOUDY    48  37  65 N8        29.92R                  
WILLIMANTIC    PTCLDY    44  37  76 NE10      29.92R                  
OXFORD         CLOUDY    45  41  86 NE7       29.92R                  
$$

MEZ002-015-021-024-NHZ003-005-008-011-012-014-VTZ005-008-130200-
NORTHERN NEW ENGLAND
  
CITY           SKY/WX    TMP DP  RH WIND       PRES   REMARKS
PORTLAND ME    CLEAR     41  34  76 NW3       29.98R                  
BANGOR ME      CLOUDY    52  39  61 NE15G21   29.99R                  
CONCORD NH     CLEAR     43  30  60 E3        29.97R                  
MANCHESTER NH  PTCLDY    45  32  60 N3        29.95R                  
NASHUA NH      PTCLDY    43  35  73 CALM      29.97R                  
PORTSMOUTH NH  PTCLDY    42  33  70 N5        29.97R                  
JAFFREY NH     MOCLDY    43  35  73 CALM      29.94R                  
KEENE NH       CLOUDY    46  37  71 NE6       29.96R                  
BURLINGTON VT  CLOUDY    59  42  53 S3        29.91R                  
MT. WASHINGTON FOG       27  27 100 E35G45      N/A  VSB 0   WCI   9  
$$

NYZ052-076-130200-
EASTERN NEW YORK
  
CITY           SKY/WX    TMP DP  RH WIND       PRES   REMARKS
ALBANY         CLOUDY    49  44  83 SE3       29.94R                  
NEW YORK CITY  LGT RAIN  48  44  86 NE7       29.91R FOG              
$$
 
ANZALL-130200-
MARINE OBSERVATIONS
  
STATION/POSITION TIME  TEMP    WIND        PRES    VSBY  WAVE
                       AIR SEA DIR/SP/G                  HT/PER
                 (UTC) (F)     (DEG/KT/KT) (MB)    (MI)  (FT/S)
BOSTON BUOY      0050   43 44   90/  6/  8 1014.6R         6/ 8
BUZZARDS BAY     0000           50/ 22/ 23 1013.0R
NANTUCKET SOUND  0040      47                N/A
MASS BAY-STELLWA 0004   44      90/ 12/ 16 1012.9R  1 7/8  6/ 8
ISLE OF SHOALS   0000   43     100/  3/  4 1013.9R
S OF BLOCK IS    0026      44                N/A           6/ 6
$$

......................KEY.........................
  SKY/WX - SKY CONDITION/PRESENT WEATHER
  TMP    - TEMPERATURE IN FAHRENHEIT
  DWPT   - DEWPOINT IN FAHRENHEIT
  RH     - RELATIVE HUMIDITY IN PERCENT
  WIND   - DIRECTION AND SPEED IN MPH
  PRES   - MEAN SEA LEVEL PRESSURE IN INCHES OF HG
  WCI    - WIND CHILL INDEX
  VSB    - VISIBILITY IN MILES
  HX     - HEAT INDEX
  TC     - TEMPERATURE IN CELSIUS
  VRB    - VARIABLE WIND DIRECTION
  N/A    - NOT AVAILABLE
  
      

Other recent Regional Weather Roundups

Fri Apr 16, 10:05am

Fri Apr 16, 9:04am

Fri Apr 16, 8:04am

Fri Apr 16, 7:04am

Fri Apr 16, 6:04am

Fri Apr 16, 5:04am

Fri Apr 16, 4:04am

Fri Apr 16, 3:04am

Fri Apr 16, 2:04am

Fri Apr 16, 1:04am

Fri Apr 16, 12:04am

Thu Apr 15, 11:05pm

Thu Apr 15, 10:04pm

Thu Apr 15, 9:04pm

Thu Apr 15, 8:04pm

Thu Apr 15, 7:05pm

Thu Apr 15, 6:04pm

Thu Apr 15, 5:05pm

Thu Apr 15, 4:04pm

Thu Apr 15, 3:05pm

Thu Apr 15, 2:04pm

Thu Apr 15, 1:05pm

Thu Apr 15, 12:04pm

Thu Apr 15, 11:04am

Thu Apr 15, 10:05am

Thu Apr 15, 9:04am

Thu Apr 15, 8:04am

Thu Apr 15, 7:04am

Thu Apr 15, 6:04am

Thu Apr 15, 5:04am

Thu Apr 15, 4:04am

Thu Apr 15, 3:04am

Thu Apr 15, 2:04am

Thu Apr 15, 1:04am

Thu Apr 15, 12:04am

Wed Apr 14, 11:04pm

Wed Apr 14, 10:04pm

Wed Apr 14, 9:04pm

Wed Apr 14, 8:04pm

Wed Apr 14, 7:04pm

Wed Apr 14, 6:04pm

Wed Apr 14, 5:05pm

Wed Apr 14, 4:04pm

Wed Apr 14, 3:05pm

Wed Apr 14, 2:04pm

Wed Apr 14, 1:05pm

Wed Apr 14, 12:04pm

Wed Apr 14, 11:04am

Wed Apr 14, 10:04am

Wed Apr 14, 9:04am

Wed Apr 14, 8:04am

Wed Apr 14, 7:04am

Wed Apr 14, 6:04am

Wed Apr 14, 5:04am

Wed Apr 14, 4:04am

Wed Apr 14, 3:04am

Wed Apr 14, 2:04am

Wed Apr 14, 1:04am

Wed Apr 14, 12:04am

Tue Apr 13, 11:04pm

Tue Apr 13, 10:05pm

Tue Apr 13, 9:05pm

Tue Apr 13, 8:05pm

Tue Apr 13, 7:04pm

Tue Apr 13, 6:04pm

Tue Apr 13, 5:05pm

Tue Apr 13, 4:04pm

Tue Apr 13, 3:04pm

Tue Apr 13, 2:05pm

Tue Apr 13, 1:04pm

Tue Apr 13, 12:05pm

Tue Apr 13, 11:05am

Tue Apr 13, 10:04am

Tue Apr 13, 9:04am

Tue Apr 13, 8:04am

Tue Apr 13, 7:04am

Tue Apr 13, 6:04am

Tue Apr 13, 5:04am

Tue Apr 13, 4:04am

Tue Apr 13, 3:04am

Tue Apr 13, 2:04am

Tue Apr 13, 1:04am

Tue Apr 13, 12:05am

Mon Apr 12, 11:04pm

Mon Apr 12, 10:04pm

Mon Apr 12, 8:04pm

Mon Apr 12, 7:05pm

Mon Apr 12, 6:04pm

Mon Apr 12, 5:04pm

Mon Apr 12, 4:04pm

Mon Apr 12, 3:05pm

Mon Apr 12, 2:04pm

Mon Apr 12, 1:05pm

Mon Apr 12, 12:04pm

Mon Apr 12, 11:04am

Mon Apr 12, 10:04am

Mon Apr 12, 9:04am

Mon Apr 12, 8:04am

Mon Apr 12, 7:04am

Mon Apr 12, 6:04am

Mon Apr 12, 5:04am

Mon Apr 12, 4:04am

Mon Apr 12, 3:04am

Mon Apr 12, 2:04am

Mon Apr 12, 1:05am

Mon Apr 12, 12:04am

Sun Apr 11, 11:04pm

Sun Apr 11, 10:04pm

Sun Apr 11, 9:04pm

Sun Apr 11, 8:04pm

Sun Apr 11, 7:04pm

Sun Apr 11, 6:05pm

Sun Apr 11, 5:05pm

Sun Apr 11, 4:04pm

Sun Apr 11, 3:05pm

Sun Apr 11, 2:05pm

Sun Apr 11, 1:05pm

Sun Apr 11, 12:04pm

Sun Apr 11, 11:05am

Sun Apr 11, 10:05am

Sun Apr 11, 9:04am

Sun Apr 11, 8:04am

Sun Apr 11, 7:04am

Sun Apr 11, 6:04am

Sun Apr 11, 5:04am

Sun Apr 11, 4:04am

Sun Apr 11, 3:04am

Sun Apr 11, 2:04am

Sun Apr 11, 1:05am

Sun Apr 11, 12:04am

Sat Apr 10, 11:05pm

Sat Apr 10, 10:04pm

Sat Apr 10, 9:04pm

Sat Apr 10, 8:04pm

Sat Apr 10, 7:05pm

Sat Apr 10, 6:04pm

Sat Apr 10, 5:04pm

Sat Apr 10, 4:04pm

Sat Apr 10, 3:04pm

Sat Apr 10, 2:05pm

Sat Apr 10, 1:04pm

Sat Apr 10, 12:04pm

Sat Apr 10, 11:04am

Sat Apr 10, 10:04am

Sat Apr 10, 9:04am

Sat Apr 10, 8:04am

Sat Apr 10, 7:04am

Sat Apr 10, 6:04am

Sat Apr 10, 5:04am

Sat Apr 10, 4:04am

Sat Apr 10, 3:04am

Sat Apr 10, 2:04am

Sat Apr 10, 1:05am

Sat Apr 10, 12:04am

Fri Apr 9, 11:04pm

Fri Apr 9, 10:05pm

Fri Apr 9, 9:04pm

Fri Apr 9, 8:05pm

Fri Apr 9, 7:05pm

Fri Apr 9, 6:04pm

Fri Apr 9, 5:04pm

Fri Apr 9, 4:05pm

Fri Apr 9, 3:05pm

Fri Apr 9, 2:04pm

Fri Apr 9, 1:04pm

Fri Apr 9, 12:04pm

Fri Apr 9, 11:05am

Meta data:

ID: ffc2773b-6b7f-4cf6-9837-3a9ed50cbf0d
Link: https://api.weather.gov/products/ffc2773b-6b7f-4cf6-9837-3a9ed50cbf0d